This is the latest recevied weather packets stored in our database for station/object DL9GJ-6. If no packets are shown the sender has not sent any weather packets the latest 10 day(s).
| Time | Temp. | Humidity | Pressure | Rain* | Wind** | Luminosity | Snow |
|---|---|---|---|---|---|---|---|
| 1777965262 | 13.89° C | 88% | 1007.9 hPa | 0 mm | - | 190 W/m² | - |
| 1777964903 | 13.89° C | 89% | 1007.9 hPa | 0 mm | - | 219 W/m² | - |
| 1777964543 | 13.33° C | 89% | 1008 hPa | 0 mm | - | 301 W/m² | - |
| 1777964183 | 13.33° C | 90% | 1008.1 hPa | 0 mm | - | 445 W/m² | - |
| 1777963823 | 12.78° C | 92% | 1008.1 hPa | 0 mm | - | 393 W/m² | - |
| 1777963809 | 12.78° C | 92% | 1008.1 hPa | 0 mm | - | 393 W/m² | - |
| 1777963463 | 12.22° C | 92% | 1008.2 hPa | 0 mm | - | 411 W/m² | - |
| 1777963101 | 11.67° C | 93% | 1008.3 hPa | 0 mm | - | 448 W/m² | - |
| 1777962741 | 11.11° C | 93% | 1008.4 hPa | 0 mm | - | 392 W/m² | - |
| 1777962729 | 11.11° C | 93% | 1008.4 hPa | 0 mm | - | 392 W/m² | - |
| 1777962381 | 10.56° C | 93% | 1008.4 hPa | 0 mm | - | 357 W/m² | - |
| 1777962021 | 10.56° C | 93% | 1008.4 hPa | 0 mm | - | 346 W/m² | - |
| 1777961662 | 9.44° C | 93% | 1008.5 hPa | 0 mm | - | 285 W/m² | - |
| 1777961301 | 8.89° C | 93% | 1008.4 hPa | 0 mm | - | 224 W/m² | - |
| 1777960942 | 8.89° C | 93% | 1008.4 hPa | 0 mm | - | 137 W/m² | - |
| 1777960581 | 8.33° C | 93% | 1008.3 hPa | 0 mm | - | 179 W/m² | - |
| 1777960222 | 8.33° C | 93% | 1008.3 hPa | 0 mm | - | 170 W/m² | - |
| 1777959862 | 8.33° C | 93% | 1008.4 hPa | 0 mm | - | 77 W/m² | - |
| 1777959502 | 8.33° C | 93% | 1008.3 hPa | 0 mm | - | 179 W/m² | - |
| 1777959142 | 7.78° C | 93% | 1008.3 hPa | 0 mm | - | 228 W/m² | - |
| 1777958783 | 7.22° C | 93% | 1008.4 hPa | 0 mm | - | 192 W/m² | - |
| 1777958423 | 7.22° C | 93% | 1008.4 hPa | 0 mm | - | 179 W/m² | - |
| 1777958063 | 6.67° C | 93% | 1008.4 hPa | 0 mm | - | 34 W/m² | - |
| 1777957703 | 6.67° C | 93% | 1008.5 hPa | 0 mm | - | 28 W/m² | - |
| 1777957343 | 6.67° C | 93% | 1008.5 hPa | 0 mm | - | 29 W/m² | - |
* Rain latest hour (hover to see other rain measurements)
** Current wind speed in m/s (hover to see current wind gust speed)